Back to catalog

STARLINK-30289

AliveCommunicationsVLEO
NORAD 57653·PAYLOAD·🇺🇸 United States

Launched Aug 17, 2023 from Cape Canaveral Space Force Station

Loading…

Next Passes (next 24 hours)

TLE

FreshSource: CelesTrak SupGP

Epoch: Sep 14, 2026, 14:14 UTC

1 57653C 23122X   26257.59354167  .00006752  00000+0  24458-3 0  2570
2 57653  43.0027  95.0209 0001452 253.9346  65.7013 15.27570129    15

Track STARLINK-30289 in real time with AllMySat

Download on the App Store